Miscellaneous Local Product
Issued by NWS Hastings, NE

Current Version | Previous Version | Text Only | Print | Product List | Glossary On
Versions: 1 2 3 4 5 6 7 8 9 10 11 12 13 14 15 16 17 18 19 20 21 22 23 24 25 26 27 28 29 30 31 32 33 34 35 36 37 38 39 40 41 42 43 44 45 46 47 48 49 50
966
AXUS43 KGID 120802
MISGRI

GID CWA HOURLY WEATHER ROUNDUP
NATIONAL WEATHER SERVICE HASTINGS NE
200 AM CST FRI FEB 12 2016

NOTE: "FAIR" INDICATES FEW OR NO CLOUDS BELOW 12,000 FEET WITH NO
SIGNIFICANT WEATHER AND/OR OBSTRUCTIONS TO VISIBILITY.

...SOUTH CENTRAL NEBRASKA...

CITY           SKY/WX    TMP DP  RH WIND       PRES   REMARKS
GRAND ISLAND   CLOUDY    29  25  85 N16       30.24S WCI  17
HASTINGS       CLOUDY    30  25  81 N13       30.22R WCI  20
KEARNEY        CLOUDY    30  27  86 N12       30.23S WCI  21
ORD            CLOUDY    29  25  85 N10       30.24R WCI  20
YORK           CLOUDY    28  28 100 N8        30.23S FOG     WCI  20
AURORA         CLOUDY    29  27  92 N13       30.24R WCI  19
LEXINGTON      CLOUDY    30  26  86 N6        30.23R WCI  24
HOLDREGE       CLOUDY    31  28  88 N9        30.22R WCI  23
HEBRON         PTCLDY    29  27  92 N13       30.21S WCI  19

...NEBRASKA PANHANDLE...

CITY           SKY/WX    TMP DP  RH WIND       PRES   REMARKS
CHADRON        CLOUDY    24  21  88 W3        30.25F
ALLIANCE       CLOUDY    24  22  91 W9        30.23R WCI  14
SCOTTSBLUFF    CLOUDY    31  26  82 N6        30.24S WCI  25
SIDNEY         CLEAR     32  26  78 W8        30.24R WCI  25

...WESTERN AND NORTH CENTRAL NEBRASKA...

CITY           SKY/WX    TMP DP  RH WIND       PRES   REMARKS
VALENTINE      CLOUDY    31  27  85 N10       30.24R WCI  22
AINSWORTH      CLOUDY    30  28  90 NW10      30.23F WCI  21
ONEILL         MOCLDY    26  24  91 NW6       30.25R WCI  19
BROKEN BOW     CLOUDY    32  29  88 N9        30.22R WCI  24
IMPERIAL         N/A     30  25  81 N3        30.24R
NORTH PLATTE   CLOUDY    30  26  85 N5        30.23R WCI  25
MCCOOK         CLOUDY    33  28  81 W8        30.25R WCI  26

...EASTERN NEBRASKA...

CITY           SKY/WX    TMP DP  RH WIND       PRES   REMARKS
NORFOLK        CLOUDY    26  22  84 NW17      30.24R WCI  13
SO SIOUX CITY  CLEAR     16  12  84 NW5       30.26S WCI   9
TEKAMAH        CLOUDY    21  18  88 N8        30.26R WCI  11
COLUMBUS       CLOUDY    27  18  69 NW13      30.26R WCI  16
ALBION         CLOUDY    27  24  87 NW9       30.25R WCI  18
OMAHA EPPLEY   CLOUDY    24  20  84 N7        30.24S WCI  16
OFFUTT AFB     CLOUDY    26  20  80 N3        30.23R
MILLARD        CLOUDY    26  20  78 CALM      30.23S
LINCOLN        CLOUDY    29  25  85 NW7       30.25R FOG     WCI  22
NEBRASKA CITY  CLOUDY    29  26  86 N7        30.21R WCI  22
BEATRICE       CLOUDY    29  27  93 NW6       30.23R WCI  23
FALLS CITY     CLOUDY    29  22  75 N6        30.21R WCI  23

...NORTHERN KANSAS...

CITY           SKY/WX    TMP DP  RH WIND       PRES   REMARKS
GOODLAND       CLEAR     31  26  82 NW5       30.24S WCI  26
HILL CITY      NOT AVBL
NORTON         SUNNY     34  27  75 W7        30.23R WCI  28
SMITH CENTER   CLEAR     30  28  93 N12       30.23R WCI  21
BELOIT         CLEAR     28  27  93 CALM      30.22R
RUSSELL        CLOUDY    31  28  89 N7        30.20R WCI  24
CONCORDIA      CLEAR     29  26  89 NW8       30.21R WCI  21
SALINA         CLEAR     29  23  78 NW7       30.21R WCI  22
TOPEKA         PTCLDY    27  21  78 CALM      30.20R



USA.gov is the U.S. government's official web portal to all federal, state and local government web resources and services.